Wind_Speed
51 58 53 50 46 42 39 40 39 38 35 31 30 32 29 25 22 19 18 15 17 16 13 16 15 11 15 20 20 18 19 18 18 12 22 25 29 35 46 76 90 80 73 68 66 47 57 69 62 56 57 51 54 53
51 55 52 46 42 39 39 40 41 40 37 36 32 30 29 26 22 18 16 13 11 9 11 15 14 14 10 12 3 2 8 16 16 23 9 16 23 29 35 58 67 69 66 67 58 38 51 69 48 54 58 57 54 58
48 52 51 44 39 38 41 43 42 41 38 37 36 33 29 27 24 19 16 15 12 6 6 7 7 4 4 4 3 8 9 16 21 19 7 4 9 12 30 47 59 47 68 73 59 38 45 60 70 56 53 61 61 60
46 47 49 41 43 48 48 46 43 41 39 38 37 35 33 32 25 23 21 21 16 12 9 3 9 9 3 2 1 7 13 22 25 10 15 10 11 10 31 38 44 44 64 62 63 35 65 65 60 63 58 58 66 65
42 43 44 43 42 43 42 44 40 37 33 32 33 34 34 32 29 27 27 26 25 22 19 15 13 11 13 11 8 12 17 19 11 10 12 13 10 22 19 24 29 43 34 54 58 47 58 60 63 65 59 61 62 59
38 37 36 37 36 33 39 43 41 41 38 33 33 33 31 27 25 23 21 19 18 15 13 12 10 13 13 9 3 10 25 23 8 7 14 14 16 17 21 33 17 28 44 44 66 49 45 55 50 50 49 48 47 49
34 36 32 33 30 30 33 38 40 42 41 40 40 35 29 26 30 26 22 19 16 14 10 6 8 9 8 12 6 3 6 5 5 7 11 13 15 12 27 41 9 23 38 42 54 44 54 54 50 46 27 53 51 31
31 32 30 28 27 25 29 31 34 40 44 49 42 34 35 34 31 31 25 21 18 13 9 13 16 13 15 15 21 9 12 11 19 12 13 6 6 16 28 32 25 19 29 27 49 39 49 46 42 45 53 46 38 29
32 31 29 28 25 22 24 25 31 33 39 42 41 28 43 50 44 36 29 26 27 27 30 27 23 18 14 18 25 22 23 20 23 17 16 12 17 16 21 30 19 26 34 23 46 50 42 49 46 52 56 60 39 45
33 29 29 30 27 23 21 23 26 30 34 36 41 35 50 50 33 38 25 26 31 28 30 26 22 19 24 22 21 23 26 23 18 19 19 13 16 25 20 20 12 22 34 39 33 35 46 50 53 59 53 47 50 36
32 31 28 27 28 23 22 18 21 27 29 32 38 31 33 47 45 39 32 27 26 30 28 19 16 20 25 24 27 24 22 19 21 23 18 17 14 13 10 18 16 25 25 28 39 44 43 44 46 45 49 58 36 30
26 28 26 24 25 25 23 22 22 23 23 29 31 25 31 49 56 40 33 46 34 33 27 16 14 19 22 21 19 19 18 19 19 23 19 14 14 16 16 15 19 24 22 27 24 22 27 16 14 21 40 48 41 33
24 25 23 22 23 22 21 25 21 18 21 28 23 31 36 37 47 40 31 33 29 29 20 16 13 14 22 22 24 30 35 35 27 23 27 21 17 19 16 13 15 16 15 19 19 15 20 9 11 17 15 14 18 17
25 25 22 21 24 25 23 17 18 15 15 19 19 36 44 43 34 31 26 29 26 24 23 21 27 36 38 44 44 44 38 35 33 32 30 27 27 27 19 19 21 8 8 4 10 13 12 10 9 8 6 10 11 13
27 25 22 21 24 24 24 17 13 11 15 14 24 35 35 35 32 27 32 22 22 23 25 26 32 34 39 39 37 35 37 36 33 31 24 16 20 15 10 9 11 6 16 7 4 4 3 5 5 8 8 8 8 14
27 26 24 21 20 22 26 22 21 15 15 18 24 25 28 24 28 27 33 34 33 32 29 28 32 29 30 36 33 33 33 30 24 22 22 27 28 24 16 10 7 5 2 7 5 4 5 5 3 7 9 8 8 10
25 26 28 26 22 22 26 22 16 9 16 23 25 25 26 24 27 30 35 35 33 27 29 29 33 35 32 28 27 28 25 22 22 21 21 19 16 19 20 19 20 15 12 9 3 4 6 9 11 13 14 15 15 15
23 26 27 28 25 23 26 21 18 17 21 20 18 19 20 23 22 25 31 31 26 26 19 23 31 30 31 27 22 18 16 13 10 9 10 9 6 7 9 8 11 10 9 8 7 4 0 3 4 7 11 15 16 17
18 21 27 26 27 29 25 23 21 25 24 18 18 20 19 19 19 23 21 22 23 21 16 16 20 24 24 21 17 14 12 9 8 7 5 3 3 3 3 5 5 6 6 5 7 6 5 5 6 8 9 8 8 12
15 18 20 24 23 22 23 29 30 31 29 30 31 25 21 19 22 24 23 21 20 15 8 6 11 13 12 11 10 8 6 6 8 10 11 9 9 10 10 9 8 8 7 7 10 14 14 11 13 17 17 17 17 19
14 15 16 20 20 13 15 19 21 21 21 20 21 19 17 19 17 17 20 22 17 13 14 18 17 14 11 11 9 8 8 8 8 8 9 11 11 12 11 11 9 8 8 8 10 14 15 16 16 18 20 19 19 20
13 13 15 18 17 15 16 16 16 16 16 18 19 20 22 21 22 22 24 18 15 14 16 16 16 16 16 16 14 12 12 13 13 13 14 14 15 16 17 15 14 15 15 13 14 15 18 20 19 20 23 24 22 21
14 14 14 15 13 14 16 17 17 16 16 16 15 15 21 20 23 23 20 17 16 14 11 11 13 14 14 15 15 16 16 17 19 20 20 21 22 23 26 28 29 30 30 31 30 28 28 29 30 31 32 31 31 31
14 15 13 10 8 8 10 10 14 14 16 15 21 25 18 20 21 21 22 22 22 23 22 21 20 20 21 20 21 25 26 25 25 27 29 28 28 29 31 34 36 39 42 44 44 43 43 44 44 43 41 41 42 42
13 11 7 13 13 8 8 12 15 16 17 20 22 22 21 21 22 23 24 25 27 27 27 27 27 27 27 26 23 24 30 33 32 31 31 33 34 34 35 38 41 43 45 47 50 51 52 50 49 49 49 46 43 43
15 15 15 12 15 14 13 13 15 17 20 21 23 23 25 26 26 29 30 31 32 32 27 25 25 26 26 26 25 26 27 28 27 26 24 23 23 24 25 26 28 29 31 32 35 38 42 46 47 47 45 45 45 45
14 13 16 13 12 14 17 19 21 22 23 23 24 25 27 27 30 32 33 35 35 31 25 27 27 26 24 22 21 21 23 23 22 18 19 21 22 23 22 22 23 23 25 26 27 28 28 28 29 31 32 35 37 39
12 11 10 11 12 15 17 18 18 18 19 20 23 25 27 30 33 35 34 31 31 31 28 27 28 29 27 27 25 24 26 25 25 25 22 21 21 22 23 23 24 24 23 21 21 22 23 23 22 22 22 23 24 26
8 9 10 12 13 16 17 16 17 18 20 22 24 26 26 28 30 33 35 35 35 36 35 32 30 30 31 28 26 27 27 25 24 25 25 25 25 26 25 23 23 23 23 22 23 23 22 22 23 24 25 26 27 29
10 11 12 16 17 16 17 19 21 22 22 24 24 25 25 25 28 31 35 38 37 34 32 32 32 30 29 27 25 26 26 25 25 24 24 24 25 25 25 25 25 25 25 25 25 26 26 26 26 26 26 26 27 27
13 14 14 13 12 14 16 16 16 17 17 19 24 26 27 27 29 33 36 37 37 34 33 33 32 32 31 29 28 28 27 26 26 26 25 24 24 25 25 25 25 24 24 24 24 24 24 24 24 24 24 25 25 25
10 13 16 17 17 17 20 20 20 21 22 24 25 27 28 29 30 31 34 38 39 38 34 34 35 34 33 31 29 29 29 29 29 30 29 28 27 26 26 26 25 24 23 22 22 22 22 22 23 23 24 24 24 23
13 14 16 16 17 19 21 22 23 22 22 24 25 27 30 31 33 35 35 36 36 36 36 36 36 36 35 33 32 31 31 31 31 31 31 31 31 30 28 26 25 23 22 22 22 21 21 21 22 23 23 22 21 21
Wind_Direction
349 352 349 348 351 354 357 3 4 2 359 356 355 356 353 348 350 342 333 314 293 292 281 270 273 272 255 262 269 266 262 253 253 227 201 226 243 246 233 222 222 218 214 207 198 194 202 215 220 222 229 218 221 223
353 355 353 352 353 356 7 7 4 2 359 0 360 357 354 355 350 343 341 345 340 318 259 270 276 279 257 277 325 297 268 245 190 179 191 222 254 238 222 218 222 219 215 205 199 190 198 206 214 223 220 217 222 227
355 357 358 358 0 5 7 8 10 10 9 9 8 7 3 1 3 3 359 360 359 339 301 268 276 263 121 117 231 312 307 184 192 192 194 291 193 233 215 208 219 222 211 206 196 190 188 210 217 218 214 221 223 228
355 356 1 8 20 18 13 12 10 7 10 12 12 13 12 19 22 29 33 33 30 23 26 64 93 88 103 89 119 162 156 161 193 214 242 243 266 163 205 203 213 216 210 207 197 187 198 210 219 224 223 225 225 227
353 357 359 11 11 13 20 19 16 14 13 18 20 20 15 15 22 32 37 37 41 45 50 62 70 66 56 39 45 155 175 175 169 245 253 224 91 142 184 192 204 208 197 205 194 193 203 212 219 226 227 226 227 231
0 360 357 7 14 15 16 16 16 17 18 19 24 25 20 15 24 27 35 53 50 46 57 79 74 68 57 44 76 118 166 173 182 158 211 199 99 97 161 153 151 208 210 203 201 213 197 210 218 221 225 230 236 244
356 358 355 1 11 5 11 15 12 19 25 26 27 27 31 32 37 39 37 42 47 67 88 119 109 103 100 126 120 143 150 249 283 173 157 184 124 65 166 185 126 182 193 203 197 207 209 216 219 223 241 218 226 251
356 354 356 351 359 357 6 13 12 17 19 14 18 31 44 45 43 42 34 37 44 42 38 24 28 25 19 42 56 100 104 116 115 122 104 115 158 108 163 176 200 197 198 199 196 212 210 218 227 228 226 233 233 248
358 358 358 353 354 352 355 4 8 12 21 19 12 28 37 41 38 37 36 44 50 45 41 43 44 49 56 66 80 85 83 89 101 98 110 109 120 133 137 174 195 209 198 192 201 208 215 220 221 230 228 232 249 251
353 355 357 359 356 353 344 349 355 6 8 16 15 31 32 49 43 36 35 32 38 48 48 51 57 61 48 42 39 45 79 99 104 122 111 136 138 128 144 191 184 201 202 205 207 212 225 231 236 239 247 247 255 249
349 354 358 358 0 356 350 347 349 359 359 13 16 19 32 36 36 42 42 37 38 33 28 22 40 52 61 72 81 84 94 109 118 117 125 147 186 190 129 102 103 178 186 208 219 225 230 235 240 242 246 243 251 255
348 354 359 4 4 357 349 355 360 1 7 14 21 16 14 33 36 28 22 24 19 12 27 50 60 63 58 70 75 88 107 109 111 118 134 136 142 126 127 101 104 107 120 143 155 163 172 157 206 223 232 239 253 251
356 359 4 8 10 3 349 343 359 0 14 26 24 23 41 44 35 27 16 26 17 27 51 69 71 62 80 94 102 102 96 97 107 116 99 104 121 126 127 121 115 112 116 116 137 148 157 156 158 161 182 197 204 224
3 1 7 10 14 17 10 350 357 9 22 51 26 35 34 42 36 18 17 31 43 61 76 81 91 104 99 101 102 95 94 94 95 91 94 98 108 115 117 104 107 107 106 145 130 140 163 176 186 203 207 199 224 238
3 6 10 11 17 13 13 14 22 33 57 50 35 38 34 33 32 27 32 44 58 80 93 98 104 103 106 98 97 94 86 79 81 85 99 93 118 138 140 79 80 104 142 159 163 204 184 191 212 206 234 243 229 235
14 17 18 18 20 14 13 27 32 46 78 55 52 59 47 46 44 44 54 62 77 89 85 96 107 98 95 96 87 85 76 73 91 89 71 85 80 80 93 137 150 112 202 254 187 194 221 212 272 283 293 296 294 272
25 23 22 22 24 23 28 36 47 76 77 68 58 52 46 50 44 57 63 70 72 87 93 95 88 83 81 83 84 80 77 82 83 91 82 94 70 73 68 71 72 67 57 42 21 219 237 257 264 263 262 263 260 260
29 30 31 34 37 40 38 36 53 76 77 70 63 53 50 43 44 37 47 51 63 63 65 83 93 90 86 81 74 68 78 83 87 92 88 86 74 57 62 46 30 33 39 41 48 41 24 181 203 238 243 248 252 250
29 31 36 40 41 45 43 55 58 70 73 70 64 63 59 57 53 49 45 49 48 45 45 48 70 77 73 72 76 82 92 92 77 97 92 78 38 1 327 338 7 6 13 1 342 335 334 336 316 299 283 279 275 275
33 41 38 39 40 40 41 49 62 66 66 68 66 62 59 60 53 45 41 40 33 8 352 29 47 54 62 60 59 49 32 14 6 2 1 357 352 344 337 336 335 336 324 305 295 296 300 297 286 282 279 279 277 274
18 25 31 37 23 21 42 50 43 51 59 62 66 64 57 54 47 40 34 27 20 16 30 39 43 46 46 40 27 6 358 353 348 344 341 341 336 331 332 327 318 297 283 280 284 286 284 284 285 282 278 276 273 270
20 22 25 31 23 15 21 31 40 43 41 36 44 45 36 29 24 24 34 25 22 20 23 24 19 13 7 2 357 351 338 329 325 322 320 318 316 312 307 301 299 297 292 283 275 272 278 282 282 282 282 282 281 280
18 21 25 24 11 24 39 39 41 39 33 21 25 24 16 17 7 3 359 352 350 348 343 341 340 338 337 333 328 322 318 316 311 307 307 304 304 302 301 300 299 298 295 294 292 287 282 283 283 282 280 274 272 273
1 6 16 11 5 19 24 18 20 13 15 342 18 15 14 14 2 356 352 350 349 347 344 339 331 327 320 320 314 308 305 303 301 299 299 297 297 298 295 292 289 288 289 288 287 287 288 288 285 283 283 283 280 279
356 340 345 22 28 36 32 18 17 15 13 12 8 10 12 9 5 358 354 348 343 339 333 329 325 319 313 307 305 299 296 297 297 294 293 293 292 288 285 285 285 286 285 285 283 282 281 281 281 279 278 279 280 280
72 57 50 72 51 45 37 33 33 31 31 23 16 12 8 6 0 355 355 352 347 343 346 347 341 334 332 331 324 315 309 304 302 299 298 298 298 300 300 300 299 298 300 300 298 293 286 280 277 277 278 279 280 281
61 70 50 64 57 48 46 45 37 31 27 22 17 14 8 3 360 358 357 356 353 353 353 350 348 350 350 348 343 330 321 324 324 319 312 309 305 304 309 315 315 308 304 305 308 310 307 300 292 285 280 279 280 282
57 57 55 55 46 39 35 34 28 21 16 12 9 7 4 2 1 0 357 354 353 357 353 344 341 347 355 357 350 338 332 334 326 322 321 322 324 321 316 312 310 313 318 320 319 314 312 309 303 300 297 295 295 295
60 53 39 37 28 21 15 11 7 5 4 3 3 1 358 357 359 360 358 356 356 356 358 353 340 336 338 349 349 341 339 338 333 330 329 326 325 325 324 324 322 322 323 324 321 319 319 316 314 313 311 308 306 304
24 19 15 12 8 4 359 355 354 356 355 351 349 351 352 352 349 348 354 357 356 354 354 354 351 344 337 337 342 342 344 343 339 333 328 324 320 318 317 317 315 315 315 316 315 315 316 316 316 315 314 312 311 310
0 355 8 8 6 358 352 357 354 349 345 347 350 351 352 353 353 353 351 350 352 355 355 354 352 350 348 343 337 335 336 337 339 339 338 335 331 324 319 316 314 313 313 314 316 319 321 322 322 321 320 319 317 316
347 346 355 350 350 353 356 355 356 358 5 3 357 355 355 358 1 359 355 351 352 357 357 355 355 351 349 350 345 340 337 337 334 332 332 331 332 331 328 324 321 319 320 321 323 324 325 326 326 324 323 322 321 320
343 342 339 345 349 352 352 354 356 0 358 355 356 354 354 355 358 360 357 357 357 354 354 354 353 351 350 350 350 348 343 339 335 331 329 327 325 325 326 326 325 324 325 325 326 326 326 326 327 327 328 327 325 324
Height
5689 5676 5662 5650 5638 5627 5616 5607 5597 5588 5579 5570 5562 5554 5547 5540 5534 5528 5524 5521 5520 5520 5519 5517 5518 5520 5521 5521 5522 5525 5525 5525 5526 5528 5538 5547 5550 5552 5560 5576 5585 5599 5611 5623 5644 5652 5671 5678 5690 5702 5711 5721 5728 5734
5687 5674 5661 5648 5637 5626 5617 5609 5599 5588 5579 5570 5561 5553 5546 5539 5533 5528 5523 5520 5517 5515 5516 5514 5515 5516 5517 5518 5518 5519 5522 5522 5524 5527 5536 5540 5542 5544 5552 5563 5571 5592 5603 5624 5641 5644 5652 5665 5677 5687 5702 5714 5720 5724
5686 5674 5661 5649 5638 5628 5619 5610 5599 5589 5581 5572 5563 5555 5548 5541 5534 5528 5523 5519 5517 5514 5513 5513 5513 5514 5515 5516 5517 5518 5520 5522 5525 5528 5531 5531 5539 5542 5546 5558 5566 5581 5598 5616 5632 5635 5642 5657 5668 5675 5690 5700 5709 5715
5686 5675 5663 5651 5641 5632 5623 5613 5603 5594 5585 5575 5567 5559 5551 5545 5537 5531 5526 5522 5518 5517 5515 5515 5514 5515 5516 5517 5516 5516 5518 5524 5528 5532 5530 5530 5532 5536 5545 5557 5565 5579 5591 5607 5623 5627 5638 5648 5657 5667 5680 5690 5695 5702
5686 5676 5665 5655 5646 5638 5628 5619 5609 5600 5591 5582 5573 5565 5558 5551 5544 5538 5533 5528 5524 5523 5521 5521 5520 5520 5518 5517 5519 5522 5523 5528 5531 5531 5531 5534 5533 5540 5548 5558 5568 5579 5588 5602 5616 5622 5631 5643 5651 5661 5673 5677 5687 5695
5685 5677 5666 5658 5650 5642 5634 5625 5615 5606 5596 5587 5578 5570 5564 5557 5551 5543 5539 5535 5532 5528 5527 5524 5523 5521 5520 5521 5522 5526 5527 5530 5532 5533 5533 5534 5535 5541 5549 5559 5573 5574 5586 5598 5609 5616 5626 5637 5644 5655 5666 5675 5683 5689
5685 5677 5668 5660 5653 5645 5639 5631 5621 5612 5602 5593 5584 5575 5569 5563 5557 5552 5547 5543 5538 5534 5532 5529 5526 5524 5523 5522 5522 5525 5531 5532 5534 5534 5537 5536 5540 5541 5553 5556 5565 5569 5583 5594 5607 5615 5622 5629 5641 5650 5656 5661 5669 5672
5685 5677 5669 5660 5654 5648 5642 5636 5628 5619 5611 5601 5590 5583 5575 5568 5561 5557 5552 5547 5543 5541 5537 5535 5533 5530 5528 5528 5529 5529 5530 5533 5535 5538 5541 5545 5547 5552 5557 5564 5570 5575 5583 5592 5603 5611 5620 5626 5634 5643 5652 5659 5661 5664
5685 5677 5668 5661 5655 5649 5644 5638 5632 5624 5617 5607 5597 5590 5583 5578 5570 5565 5559 5553 5549 5547 5543 5541 5538 5535 5535 5534 5533 5536 5537 5540 5543 5544 5548 5552 5555 5559 5563 5570 5578 5583 5589 5596 5604 5611 5617 5625 5631 5638 5646 5652 5654 5658
5684 5677 5669 5661 5654 5648 5644 5640 5634 5627 5620 5613 5605 5598 5591 5582 5577 5569 5566 5560 5557 5554 5551 5550 5547 5544 5542 5538 5538 5540 5545 5547 5549 5553 5554 5557 5559 5564 5570 5576 5579 5583 5590 5596 5604 5611 5618 5625 5630 5635 5639 5643 5648 5652
5683 5676 5669 5661 5653 5647 5643 5640 5635 5630 5623 5617 5612 5603 5597 5588 5580 5572 5569 5566 5563 5562 5559 5555 5554 5552 5551 5550 5549 5550 5553 5555 5557 5560 5562 5564 5568 5571 5575 5576 5578 5583 5588 5595 5602 5609 5615 5623 5626 5628 5632 5637 5642 5643
5681 5675 5668 5662 5655 5647 5642 5638 5635 5631 5627 5621 5615 5611 5600 5589 5581 5580 5574 5566 5567 5563 5562 5561 5558 5557 5556 5556 5557 5558 5559 5561 5564 5567 5570 5571 5574 5576 5578 5580 5582 5587 5592 5600 5604 5608 5612 5620 5621 5623 5628 5632 5634 5636
5680 5674 5668 5662 5656 5650 5642 5635 5635 5632 5630 5625 5620 5613 5603 5598 5591 5587 5581 5576 5572 5570 5568 5567 5565 5564 5562 5561 5562 5565 5568 5570 5573 5574 5576 5578 5579 5583 5585 5588 5591 5592 5598 5601 5606 5609 5613 5616 5619 5621 5625 5627 5629 5632
5680 5674 5668 5663 5657 5651 5645 5639 5635 5634 5633 5630 5625 5614 5607 5602 5601 5596 5592 5586 5582 5578 5577 5576 5574 5573 5574 5574 5575 5577 5579 5580 5581 5583 5585 5587 5590 5592 5593 5596 5597 5598 5602 5603 5605 5608 5612 5615 5617 5619 5622 5625 5626 5628
5681 5675 5669 5664 5658 5654 5648 5640 5636 5635 5635 5633 5627 5622 5618 5613 5611 5606 5601 5596 5591 5589 5588 5588 5587 5587 5588 5587 5588 5588 5590 5590 5592 5594 5596 5596 5598 5599 5600 5601 5602 5604 5606 5607 5609 5610 5613 5615 5617 5619 5620 5622 5623 5625
5683 5677 5671 5667 5662 5657 5650 5641 5637 5638 5637 5636 5632 5631 5629 5626 5620 5616 5610 5606 5601 5599 5601 5600 5599 5598 5599 5598 5600 5599 5598 5599 5602 5603 5604 5604 5605 5604 5604 5606 5607 5608 5609 5610 5611 5612 5613 5615 5617 5618 5619 5620 5621 5622
5686 5680 5675 5669 5664 5659 5653 5648 5645 5643 5640 5638 5637 5635 5634 5632 5628 5624 5620 5618 5614 5616 5614 5613 5608 5608 5609 5609 5609 5609 5609 5610 5612 5612 5613 5612 5611 5611 5611 5611 5612 5612 5612 5612 5613 5613 5614 5615 5616 5618 5618 5619 5619 5619
5689 5685 5679 5674 5669 5664 5658 5656 5652 5648 5645 5644 5644 5642 5639 5637 5634 5633 5630 5627 5628 5627 5627 5621 5616 5616 5615 5617 5617 5618 5619 5618 5618 5618 5618 5618 5617 5616 5617 5616 5616 5616 5615 5615 5615 5615 5615 5615 5616 5617 5617 5617 5617 5617
5693 5688 5684 5679 5675 5669 5667 5661 5658 5653 5651 5651 5649 5648 5647 5645 5642 5639 5639 5637 5635 5634 5634 5632 5628 5623 5623 5624 5624 5624 5625 5625 5624 5623 5622 5621 5620 5620 5620 5619 5618 5617 5616 5616 5614 5613 5614 5614 5614 5613 5614 5615 5615 5613
5695 5691 5687 5683 5680 5678 5675 5670 5666 5662 5661 5657 5654 5655 5654 5651 5648 5647 5646 5643 5641 5641 5639 5636 5632 5630 5630 5629 5629 5628 5627 5625 5624 5623 5622 5622 5621 5620 5619 5618 5616 5617 5616 5615 5614 5613 5613 5613 5612 5611 5610 5611 5611 5610
5697 5694 5691 5686 5685 5683 5680 5675 5673 5670 5668 5666 5662 5661 5660 5657 5656 5654 5652 5648 5646 5644 5641 5638 5637 5637 5635 5633 5631 5630 5628 5626 5625 5624 5623 5621 5620 5618 5617 5616 5615 5614 5614 5613 5611 5609 5608 5607 5606 5605 5603 5603 5603 5601
5700 5697 5694 5691 5689 5687 5684 5681 5678 5675 5673 5670 5668 5667 5664 5662 5659 5657 5652 5652 5649 5645 5642 5639 5638 5637 5635 5633 5632 5630 5628 5626 5624 5622 5620 5617 5615 5612 5610 5610 5610 5608 5609 5609 5607 5605 5602 5600 5599 5597 5595 5593 5593 5593
5702 5699 5695 5693 5692 5690 5688 5684 5683 5680 5677 5674 5671 5668 5665 5662 5660 5657 5654 5651 5648 5645 5643 5640 5638 5636 5634 5631 5628 5626 5624 5622 5620 5618 5618 5615 5612 5609 5606 5603 5600 5598 5596 5594 5593 5593 5592 5590 5588 5587 5585 5584 5584 5584
5705 5702 5699 5697 5695 5692 5690 5688 5685 5682 5679 5671 5667 5669 5665 5662 5660 5656 5653 5649 5645 5641 5638 5635 5633 5630 5627 5626 5622 5618 5617 5616 5614 5611 5608 5607 5604 5601 5597 5594 5592 5589 5585 5582 5581 5580 5577 5574 5573 5573 5571 5569 5569 5569
5706 5703 5700 5699 5695 5692 5691 5689 5686 5683 5679 5676 5673 5670 5666 5663 5660 5656 5652 5647 5643 5639 5635 5631 5628 5625 5621 5619 5618 5613 5608 5605 5603 5601 5598 5596 5593 5591 5587 5583 5580 5577 5574 5571 5567 5564 5561 5558 5555 5554 5556 5554 5552 5551
5706 5703 5701 5700 5699 5696 5694 5691 5688 5685 5681 5678 5674 5670 5666 5663 5659 5654 5649 5644 5639 5633 5627 5623 5619 5615 5612 5608 5603 5599 5596 5593 5591 5590 5587 5583 5580 5577 5575 5571 5567 5564 5561 5557 5552 5548 5544 5541 5539 5539 5538 5537 5535 5533
5709 5707 5705 5703 5701 5699 5696 5692 5689 5686 5683 5680 5677 5672 5668 5664 5659 5653 5647 5641 5635 5629 5626 5620 5616 5612 5608 5604 5599 5593 5588 5585 5584 5583 5580 5576 5572 5569 5566 5562 5558 5555 5551 5548 5543 5539 5534 5530 5527 5525 5524 5521 5520 5519
5711 5709 5707 5705 5702 5700 5697 5693 5691 5689 5685 5682 5677 5673 5668 5663 5658 5652 5647 5642 5635 5629 5623 5618 5613 5608 5605 5600 5595 5589 5583 5580 5576 5572 5570 5567 5563 5559 5555 5552 5549 5546 5542 5539 5535 5530 5527 5523 5520 5517 5515 5512 5510 5508
5713 5711 5709 5707 5703 5700 5697 5695 5692 5689 5685 5681 5677 5673 5669 5663 5657 5652 5646 5639 5632 5625 5620 5615 5610 5605 5601 5598 5593 5586 5581 5577 5572 5567 5563 5559 5555 5551 5548 5544 5540 5537 5534 5531 5527 5523 5520 5517 5513 5510 5506 5503 5500 5497
5713 5711 5709 5705 5702 5700 5698 5694 5690 5687 5684 5680 5677 5673 5669 5663 5657 5651 5645 5638 5631 5625 5620 5614 5608 5603 5597 5593 5590 5584 5578 5574 5569 5564 5559 5555 5551 5547 5543 5539 5535 5531 5527 5524 5520 5516 5513 5509 5505 5502 5498 5494 5490 5487
5712 5709 5707 5706 5704 5702 5699 5695 5692 5689 5685 5681 5676 5671 5667 5662 5656 5648 5642 5636 5631 5624 5618 5612 5606 5600 5594 5589 5583 5579 5575 5570 5564 5560 5555 5550 5545 5541 5536 5532 5528 5523 5520 5516 5512 5508 5505 5501 5497 5493 5489 5486 5482 5478
5711 5710 5707 5704 5703 5700 5696 5692 5690 5686 5681 5678 5674 5669 5664 5659 5654 5649 5641 5634 5626 5620 5615 5610 5604 5597 5591 5586 5580 5574 5569 5564 5558 5553 5548 5543 5539 5535 5530 5525 5520 5516 5512 5508 5504 5500 5497 5493 5490 5486 5482 5479 5475 5471
5710 5708 5706 5704 5701 5698 5695 5691 5687 5684 5680 5677 5673 5668 5662 5657 5651 5646 5640 5633 5625 5618 5612 5606 5600 5594 5588 5582 5577 5571 5565 5559 5553 5548 5542 5537 5531 5527 5523 5519 5514 5510 5506 5502 5498 5494 5491 5487 5483 5480 5476 5472 5469 5465